Regional Weather Roundup
Issued by NWS Newport/Morehead, NC

Current Version | Previous Version | Graphics & Text | Print | Product List | Glossary Off
Versions: 1 2 3 4 5 6 7 8 9 10 11 12 13 14 15 16 17 18 19 20 21 22 23 24 25 26 27 28 29 30 31 32 33 34 35 36 37 38 39 40 41 42 43 44 45 46 47 48 49 50

000
ASUS42 KMHX 242225
RWRMHX
WEATHER ROUNDUP FOR EASTERN NORTH CAROLINA
NATIONAL WEATHER SERVICE NEWPORT/MOREHEAD CITY NC
600 PM EDT WED AUG 24 2016

NOTE: "FAIR" INDICATES FEW OR NO CLOUDS BELOW 12,000 FEET
WITH NO SIGNIFICANT WEATHER AND/OR OBSTRUCTIONS TO VISIBILITY

NCZ015>017-031-032-045>047-102-103-242300-
NORTH COAST

CITY           SKY/WX    TMP DP  RH WIND       PRES   REMARKS
EDENTON        SUNNY     82  67  59 E6        30.21S
ELIZABETH CITY SUNNY     81  66  60 NE9       30.21F
KITTY HAWK     CLEAR     82  74  74 NE3       30.20S
MANTEO         PTSUNNY   79  71  76 E9        30.21S

$$

NCZ045>047-081-094-103-104-242300-
CENTRAL COAST

CITY           SKY/WX    TMP DP  RH WIND       PRES   REMARKS
FRISCO         PTSUNNY   83  68  60 E8        30.19F

$$

NCZ095-097-098-100-101-242300-
SOUTHERN COAST

CITY           SKY/WX    TMP DP  RH WIND       PRES   REMARKS
BEAUFORT       CLOUDY    79  72  79 NE7       30.19S
CEDAR ISLAND   NOT AVBL
JACKSONVILLE   CLOUDY    84  62  47 NE8       30.19S
PINEY ISLAND   NOT AVBL
WILMINGTON     CLOUDY    83  61  47 NE10      30.19S


$$

NCZ011>013-027>030-043-044-078>080-089-090>093-098-242300-
COASTAL PLAIN

CITY           SKY/WX    TMP DP  RH WIND       PRES   REMARKS
AHOSKIE        PTSUNNY   78  67  68 CALM      30.21S
CLINTON        MOSUNNY   83  65  54 NE3       30.20F
ELIZABETHTOWN  MOSUNNY   85  62  47 CALM      30.19F
GOLDSBORO      MOSUNNY   84  61  45 NE7       30.19S
GREENVILLE     MOSUNNY   82  61  47 N7        30.21S
HAVELOCK       CLOUDY    82  69  64 NE6       30.20S
KENANSVILLE    NOT AVBL
KINSTON        CLOUDY    82  63  51 N6        30.21S
NEW BERN       CLOUDY    82  61  48 N8        30.21R
RICHLANDS      CLOUDY    82  64  54 N7        30.20S
ROCKY MOUNT    MOSUNNY   83  64  52 VRB5      30.21F
WASHINGTON     MOSUNNY   81  61  51 E3        30.21S
WHITEVILLE     PTSUNNY   84  64  51 NE6       30.18F

$$

AMZ130-135-150-152-154-156-158-170-250-252-270-ANZ085-086-088-633-658-670-242300-
MARINE OBSERVATIONS

STATION/POSITION TIME  TEMP    WIND        PRES    WAVE   SWELL
                       AIR SEA DIR/SP/G            HT/PER HT/PER
                 (UTC) (F)     (DEG/KT/KT) (MB)    (FT/S) (FT/S)
CHESAPEAKE LIGHT NOT AVBL
64 E VA BEACH    2150   79 82   80/  6/  8 1023.0    3/11   2/11
DUCK             2200   78 79   40/  6/  8 1022.4
2 E DUCK         2111      77                N/A     2/13
OREGON INLET     2200   80 78   30/  8/ 10 1022.7
13E OREGON INLT  2200      80                N/A     3/11   3/11
HATTERAS CG      2200   80 79  100/  5/  8 1022.2
DIAMOND BUOY     2150   81 85   90/ 10/ 12 1022.3    3/ 7   2/ 7
CAPE LOOKOUT     2200   79      30/ 12/ 15 1021.9
BEAUFORT LAB     2200   79 81   30/  7/ 10 1021.8
30 SE NEW RVR IN 2208   81 84   50/ 14/ 17 1021.9
30 SE NEW RVR IN 2155      84                N/A     3/ 5
27 SE WRIGHTSVLE 2208   82 84   10/ 10/ 14 1022.1
5 SE WRIGHTSVLE  2108   81 83   80/ 10/ 14 1023.2
225 S CAPE HAT   2150   82 85   50/ 14/ 17 1019.3    5/ 6   2/11
41 SE CHARLESTON 2150   82 84   40/ 16/ 17 1020.9    5/ 6   2/ 8

$$



USA.gov is the U.S. government's official web portal to all federal, state and local government web resources and services.